[[{"header":{"parameterUnit":"m.s-1","parameterCategory":1,"la1":30.2991,"la2":30.254,"lo1":-89.0895,"lo2":-89.0444,"dy":0.0017,"dx":0.0017,"nx":28,"ny":28,"refTime":"2024-08-04T09:00:00:Z","depth":0,"parameterNumber":2,"parameterNumberName":"U-component_of_WINDS"},"data":[0,0,0,0,0,0,0,0,0,0,0,0,0,0,0,0,0,0,0,0,0,0,0,0,0,0,0,0,0,0,0,0,0,0,0,0,0,0,0,0,0,0,0,0,0,0,0,0,0,0,0,0,0,0,0,0,0,0,-0.7621,-0.7615,0,-0.7072,-0.7066,-0.706,-0.6808,-0.6809,-0.6809,-0.681,-0.6259,-0.6245,-0.623,0,0,0,0,0,0,0,0,0,0,0,0,0,-0.8469,-0.8455,-0.7622,-0.7615,-0.7608,-0.7073,-0.7066,-0.7058,-0.6808,-0.6809,-0.6809,-0.681,-0.6264,-0.6246,-0.6228,0,0,0,0,0,0,0,0,0,0,0,0,0,-0.8029,-0.845,-0.7623,-0.7418,-0.7395,-0.7075,-0.7065,-0.7056,-0.6808,-0.6809,-0.6809,-0.681,-0.627,-0.6248,-0.6226,-0.6072,0,0,-0.6157,-0.6147,0,0,0,0,0,0,0,0,-0.8054,-0.7998,-0.7455,-0.7432,-0.7405,-0.7009,-0.7162,-0.6726,-0.6808,-0.7031,-0.681,-0.681,-0.6509,-0.6467,-0.6362,-0.6046,-0.6022,-0.6155,-0.6141,-0.6131,-0.6125,0,0,0,0,0,0,0,-0.8085,-0.802,-0.7404,-0.7448,-0.7417,-0.7359,-0.7297,-0.7078,-0.6773,-0.7012,-0.6992,-0.693,-0.6495,-0.6385,-0.6348,-0.6014,-0.6155,-0.6135,-0.6121,-0.6112,-0.5547,-0.5546,0,0,0,0,0,0,-0.8147,-0.8047,-0.7422,-0.7388,-0.7737,-0.7343,-0.7274,-0.7136,-0.6775,-0.672,-0.693,-0.692,-0.6423,-0.6375,-0.6328,-0.6122,-0.6131,-0.611,-0.6097,-0.5549,-0.5547,-0.5546,0,0,0,0,0,0,-0.8166,-0.8093,-0.7444,-0.7712,-0.7625,-0.7328,-0.7174,-0.7124,-0.7013,-0.6712,-0.6658,-0.6872,-0.6422,-0.6359,-0.6137,-0.61,-0.61,-0.6079,-0.555,-0.5548,-0.5546,-0.5713,0,0,0,0,0,0,-0.8191,-0.8102,-0.8036,-0.7712,-0.7611,-0.7258,-0.7172,-0.7113,-0.6973,-0.6956,-0.6644,-0.6593,-0.6418,-0.6172,-0.6115,-0.6069,-0.6062,-0.5552,-0.555,-0.5547,-0.571,-0.5717,-0.5724,0,0,0,0,0,-0.8223,-0.8107,-0.8034,-0.796,-0.7522,-0.7256,-0.7199,-0.6996,-0.6971,-0.6905,-0.6713,-0.6603,-0.6116,-0.6151,-0.6084,-0.6032,-0.5554,-0.555,-0.5547,-0.5707,-0.5716,-0.5724,0,0,0,0,0,0,-0.8436,-0.806,-0.7975,-0.775,-0.7537,-0.7214,-0.7123,-0.7012,-0.6804,-0.6796,-0.6558,-0.649,-0.6289,-0.6139,-0.6186,-0.5866,-0.5825,-0.5809,-0.5969,-0.5975,-0.5983,-0.6021,-0.6043,0,0,0,0,0,-0.8457,-0.8268,-0.7952,-0.7785,-0.7682,-0.7423,-0.7299,-0.7161,-0.6932,-0.6842,-0.6633,-0.6419,-0.6217,-0.6089,-0.5887,-0.569,-0.5619,-0.5621,-0.5629,-0.5636,-0.5623,-0.551,-0.5507,-0.5535,-0.5535,-0.5535,0,0,-0.8498,-0.827,-0.8165,-0.7822,-0.764,-0.7454,-0.7348,-0.7155,-0.7015,-0.6813,-0.6588,-0.643,-0.6176,-0.5966,-0.5863,-0.5834,-0.5601,-0.5632,-0.564,-0.5622,-0.5506,-0.5504,-0.5502,-0.5533,-0.5533,-0.5534,0,0,-0.8477,-0.8285,-0.8124,-0.7945,-0.767,-0.7499,-0.7463,-0.7157,-0.7042,-0.6813,-0.6658,-0.6494,-0.6151,-0.5976,-0.5842,-0.5764,-0.5655,-0.5706,-0.574,-0.5633,-0.5631,-0.5628,-0.5599,-0.5592,-0.5695,-0.5695,-0.5696,0,-0.8563,-0.827,-0.8057,-0.7871,-0.7727,-0.7535,-0.7373,-0.7211,-0.6888,-0.6794,-0.6768,-0.6335,-0.615,-0.5897,-0.5879,-0.5778,-0.573,-0.5737,-0.5648,-0.5642,-0.5636,-0.5606,-0.5597,-0.5703,-0.5702,-0.5701,-0.5701,0,-0.8391,-0.8192,-0.8097,-0.7785,-0.763,-0.7459,-0.7224,-0.7094,-0.6974,-0.6808,-0.6581,-0.6354,-0.6103,-0.6034,-0.5915,-0.5766,-0.5757,-0.5693,-0.5646,-0.5645,-0.5613,-0.56,-0.5714,-0.5711,-0.5709,-0.5707,0,0,-0.848,-0.8056,-0.8024,-0.7882,-0.7569,-0.7413,-0.7238,-0.6989,-0.6883,-0.667,-0.6517,-0.6235,-0.6174,-0.6023,-0.5885,-0.5791,-0.5744,-0.5737,-0.5728,-0.5745,-0.5568,-0.5615,-0.5605,-0.5673,-0.567,-0.5668,-0.5588,0,-0.8414,-0.808,-0.7886,-0.7636,-0.7451,-0.7271,-0.7118,-0.6913,-0.6756,-0.6581,-0.641,-0.6213,-0.6148,-0.6056,-0.5956,-0.5771,-0.5705,-0.5775,-0.5531,-0.5525,-0.5595,-0.5588,-0.5636,-0.5571,-0.5575,-0.5572,-0.5571,0,-0.8288,-0.8075,-0.7805,-0.7516,-0.7431,-0.7296,-0.7055,-0.689,-0.6657,-0.655,-0.6385,-0.6246,-0.6059,-0.6033,-0.5773,-0.5825,-0.5716,-0.5612,-0.5604,-0.557,-0.5544,-0.5551,-0.5545,-0.5535,-0.5549,-0.5551,-0.5552,0,-0.8378,-0.8026,-0.7818,-0.7702,-0.736,-0.727,-0.7125,-0.6891,-0.6756,-0.6549,-0.646,-0.6236,-0.6113,-0.5945,-0.5753,-0.5751,-0.5513,-0.5471,-0.5421,-0.5426,-0.5374,-0.5379,-0.5348,-0.5311,-0.5312,-0.5312,-0.5312,0,-0.8321,-0.8163,-0.7854,-0.7726,-0.7546,-0.7329,-0.7158,-0.6999,-0.6795,-0.6637,-0.6472,-0.6329,-0.6084,-0.5913,-0.5763,-0.5572,-0.5519,-0.5429,-0.539,-0.5441,-0.5452,-0.5362,-0.536,-0.5309,-0.531,-0.531,-0.5311,0,-0.8387,-0.8174,-0.7936,-0.7633,-0.7554,-0.7435,-0.7178,-0.705,-0.6888,-0.6691,-0.6633,-0.6379,-0.6169,-0.5962,-0.5682,-0.5581,-0.5392,-0.5341,-0.5468,-0.5446,-0.5407,-0.5413,-0.5313,-0.529,-0.5275,-0.5275,-0.5276,0,-0.8362,-0.8235,-0.792,-0.78,-0.7657,-0.7468,-0.7329,-0.7115,-0.6978,-0.6706,-0.6613,-0.6391,-0.62,-0.5875,-0.5669,-0.5455,-0.5396,-0.5377,-0.5363,-0.5419,-0.5393,-0.5401,-0.5388,-0.5382,-0.5383,-0.5384,-0.5385,0,-0.8339,-0.8241,-0.8044,-0.7813,-0.7651,-0.7459,-0.7262,-0.7176,-0.6925,-0.6781,-0.6562,-0.6416,-0.6129,-0.5912,-0.5675,-0.5531,-0.5417,-0.5393,-0.5369,-0.5417,-0.5494,-0.545,-0.5482,-0.5394,-0.5393,-0.5392,-0.5392,-0.5391,-0.8355,-0.8236,-0.7995,-0.7783,-0.7613,-0.7434,-0.7299,-0.7121,-0.6934,-0.668,-0.6568,-0.6349,-0.6126,-0.5795,-0.5654,-0.5484,-0.5454,-0.5421,-0.5412,-0.5406,-0.5417,-0.5527,-0.5441,-0.544,-0.544,-0.5439,-0.5439,0,-0.8322,-0.8159,-0.7967,-0.7696,-0.7531,-0.7438,-0.7218,-0.7087,-0.6895,-0.6694,-0.6511,-0.6264,-0.6054,-0.5834,-0.5613,-0.5519,-0.5462,-0.5468,-0.5471,-0.544,-0.5457,-0.5497,-0.5518,-0.5518,-0.5518,-0.5518,-0.5518,-0.5518,-0.8284,-0.8076,-0.7952,-0.7661,-0.75,-0.7281,-0.7163,-0.6999,-0.6838,-0.6567,-0.6391,-0.6248,-0.6041,-0.5805,-0.5611,-0.5552,-0.5478,-0.5498,-0.5425,-0.5444,-0.5438,-0.5433,-0.547,-0.5485,-0.5485,-0.5421,-0.5421,-0.5421]},{"header":{"parameterUnit":"m.s-1","parameterCategory":1,"la1":30.2991,"la2":30.254,"lo1":-89.0895,"lo2":-89.0444,"dy":0.0017,"dx":0.0017,"nx":28,"ny":28,"refTime":"2024-08-04T09:00:00:Z","depth":0,"parameterNumber":3,"parameterNumberName":"V-component_of_WINDS"},"data":[0,0,0,0,0,0,0,0,0,0,0,0,0,0,0,0,0,0,0,0,0,0,0,0,0,0,0,0,0,0,0,0,0,0,0,0,0,0,0,0,0,0,0,0,0,0,0,0,0,0,0,0,0,0,0,0,0,0,-2.2295,-2.2297,0,-2.2542,-2.2544,-2.2547,-2.2637,-2.2636,-2.2635,-2.2635,-2.2887,-2.2894,-2.2902,0,0,0,0,0,0,0,0,0,0,0,0,0,-2.19,-2.1907,-2.2294,-2.2297,-2.23,-2.2541,-2.2545,-2.2548,-2.2637,-2.2636,-2.2635,-2.2634,-2.2884,-2.2893,-2.2902,0,0,0,0,0,0,0,0,0,0,0,0,0,-2.2102,-2.1909,-2.2294,-2.2374,-2.2384,-2.254,-2.2545,-2.2549,-2.2638,-2.2636,-2.2635,-2.2634,-2.2882,-2.2892,-2.2904,-2.2998,0,0,-2.2938,-2.2943,0,0,0,0,0,0,0,0,-2.209,-2.2116,-2.2359,-2.2369,-2.238,-2.2557,-2.2498,-2.2699,-2.2638,-2.2541,-2.2635,-2.2633,-2.2778,-2.2798,-2.2847,-2.301,-2.3021,-2.2939,-2.2946,-2.2951,-2.2954,0,0,0,0,0,0,0,-2.2076,-2.2106,-2.2392,-2.2363,-2.2375,-2.2398,-2.2425,-2.2537,-2.2664,-2.2549,-2.2557,-2.2585,-2.2784,-2.2836,-2.2854,-2.3025,-2.2939,-2.2949,-2.2956,-2.296,-2.328,-2.3281,0,0,0,0,0,0,-2.2049,-2.2094,-2.2384,-2.24,-2.2229,-2.2406,-2.2437,-2.2502,-2.2663,-2.2686,-2.2585,-2.2588,-2.2817,-2.284,-2.2863,-2.2986,-2.295,-2.2961,-2.2968,-2.3278,-2.328,-2.3282,0,0,0,0,0,0,-2.204,-2.2074,-2.2374,-2.2249,-2.2289,-2.2414,-2.2487,-2.2507,-2.256,-2.269,-2.2713,-2.2616,-2.2817,-2.2847,-2.2964,-2.2996,-2.2966,-2.2976,-2.3276,-2.3278,-2.3281,-2.3231,0,0,0,0,0,0,-2.2028,-2.207,-2.2107,-2.2249,-2.2295,-2.2471,-2.2488,-2.2513,-2.2579,-2.2584,-2.2724,-2.2746,-2.2819,-2.2947,-2.2976,-2.3011,-2.2985,-2.3274,-2.3277,-2.328,-2.323,-2.3231,-2.3232,0,0,0,0,0,-2.2014,-2.2083,-2.2109,-2.2143,-2.2344,-2.2473,-2.25,-2.2581,-2.2581,-2.262,-2.2704,-2.2742,-2.2987,-2.2958,-2.2991,-2.303,-2.3272,-2.3276,-2.328,-2.323,-2.3231,-2.3232,0,0,0,0,0,0,-2.1941,-2.2103,-2.2133,-2.225,-2.2347,-2.2488,-2.2539,-2.258,-2.2679,-2.268,-2.2778,-2.2808,-2.2918,-2.2986,-2.2951,-2.3131,-2.3132,-2.3143,-2.3083,-2.3085,-2.3086,-2.3068,-2.2994,0,0,0,0,0,-2.1938,-2.2029,-2.2166,-2.2256,-2.2303,-2.2412,-2.2472,-2.2527,-2.2631,-2.2673,-2.2765,-2.2865,-2.2965,-2.3029,-2.3128,-2.324,-2.3273,-2.3283,-2.3284,-2.3284,-2.3293,-2.3359,-2.3366,-2.3295,-2.3295,-2.3295,0,0,-2.1934,-2.2034,-2.2085,-2.2244,-2.2325,-2.2418,-2.2446,-2.2543,-2.2613,-2.2687,-2.2804,-2.2876,-2.2994,-2.3109,-2.3165,-2.3169,-2.332,-2.3289,-2.3289,-2.3297,-2.3364,-2.337,-2.3376,-2.3297,-2.3297,-2.3296,0,0,-2.1974,-2.2058,-2.2143,-2.2224,-2.2348,-2.2421,-2.2441,-2.2576,-2.2627,-2.2746,-2.2804,-2.2888,-2.3058,-2.314,-2.3204,-2.3276,-2.3316,-2.3306,-2.3312,-2.3375,-2.3381,-2.3386,-2.3413,-2.3422,-2.3313,-2.3313,-2.3313,0,-2.1953,-2.2095,-2.2181,-2.2275,-2.2344,-2.2416,-2.2503,-2.2578,-2.2727,-2.2773,-2.2775,-2.2991,-2.3075,-2.3212,-2.323,-2.3279,-2.3306,-2.3291,-2.3373,-2.3379,-2.3386,-2.3413,-2.3422,-2.3311,-2.3312,-2.3312,-2.3312,0,-2.2064,-2.2161,-2.2215,-2.2358,-2.2433,-2.2522,-2.2623,-2.2688,-2.2736,-2.2808,-2.2929,-2.3033,-2.3156,-2.3192,-2.324,-2.3336,-2.3335,-2.3354,-2.3357,-2.3389,-2.3416,-2.3427,-2.3309,-2.3309,-2.331,-2.331,0,0,-2.2065,-2.2255,-2.2273,-2.234,-2.2482,-2.2559,-2.2653,-2.2773,-2.2827,-2.2928,-2.301,-2.3152,-2.3171,-2.3244,-2.3302,-2.3357,-2.3409,-2.337,-2.3374,-2.3374,-2.3524,-2.351,-2.352,-2.3436,-2.3438,-2.344,-2.3514,0,-2.2124,-2.2295,-2.2375,-2.2511,-2.2603,-2.2673,-2.2755,-2.2851,-2.2921,-2.3009,-2.3087,-2.3187,-2.3204,-2.3248,-2.3306,-2.339,-2.3441,-2.3386,-2.3514,-2.3517,-2.3483,-2.3534,-2.352,-2.3585,-2.3525,-2.3527,-2.3528,0,-2.2216,-2.2318,-2.2462,-2.2595,-2.2636,-2.2708,-2.2826,-2.2909,-2.302,-2.3067,-2.3149,-2.3205,-2.3307,-2.3302,-2.3445,-2.3406,-2.3463,-2.3512,-2.3517,-2.3533,-2.3525,-2.3553,-2.3607,-2.3617,-2.3546,-2.3544,-2.3543,0,-2.2204,-2.2376,-2.2486,-2.254,-2.2697,-2.2747,-2.2814,-2.2924,-2.2992,-2.3094,-2.3139,-2.3251,-2.3313,-2.3399,-2.3485,-2.3473,-2.3619,-2.3621,-2.3662,-2.366,-2.3691,-2.3688,-2.3756,-2.3725,-2.3725,-2.3724,-2.3724,0,-2.2263,-2.2349,-2.2483,-2.255,-2.2649,-2.2741,-2.2836,-2.2909,-2.3006,-2.3089,-2.3156,-2.3233,-2.3341,-2.3431,-2.3498,-2.3607,-2.3634,-2.3676,-2.3693,-2.3671,-2.3666,-2.3711,-2.3709,-2.3727,-2.3726,-2.3726,-2.3725,0,-2.2266,-2.2359,-2.2483,-2.2622,-2.2659,-2.2726,-2.2845,-2.2913,-2.2987,-2.3091,-2.3121,-2.3237,-2.3347,-2.3441,-2.3585,-2.3631,-2.3744,-2.3763,-2.3706,-2.3716,-2.3752,-2.3748,-2.3853,-2.3872,-2.3825,-2.3825,-2.3826,0,-2.2298,-2.2366,-2.2513,-2.2573,-2.264,-2.2737,-2.2806,-2.29,-2.2969,-2.3102,-2.3154,-2.3269,-2.3366,-2.3539,-2.3636,-2.3748,-2.3772,-2.3801,-2.3789,-2.3765,-2.3774,-2.377,-2.3778,-2.3801,-2.3801,-2.3801,-2.3801,0,-2.2346,-2.2389,-2.2486,-2.26,-2.2681,-2.2776,-2.2872,-2.2918,-2.3029,-2.3104,-2.3218,-2.3293,-2.3441,-2.3555,-2.3677,-2.3748,-2.3794,-2.3804,-2.382,-2.3799,-2.3764,-2.3786,-2.371,-2.3802,-2.3802,-2.3802,-2.3802,-2.3802,-2.2367,-2.2431,-2.2544,-2.2651,-2.2733,-2.2822,-2.2893,-2.2976,-2.3073,-2.3201,-2.325,-2.3367,-2.3477,-2.3646,-2.3717,-2.381,-2.3817,-2.3839,-2.3845,-2.385,-2.3847,-2.3748,-2.3832,-2.3832,-2.3833,-2.3833,-2.3833,0,-2.2419,-2.2496,-2.2593,-2.2726,-2.281,-2.2846,-2.2954,-2.3023,-2.3124,-2.3224,-2.3318,-2.345,-2.3561,-2.3667,-2.3784,-2.3838,-2.3862,-2.3865,-2.3863,-2.3879,-2.3834,-2.3809,-2.3844,-2.3844,-2.3844,-2.3844,-2.3844,-2.3844,-2.2457,-2.2568,-2.2624,-2.2778,-2.2854,-2.2969,-2.3028,-2.3111,-2.3191,-2.3335,-2.3427,-2.3496,-2.3599,-2.3723,-2.3827,-2.3856,-2.3897,-2.3895,-2.3929,-2.3884,-2.3882,-2.388,-2.3858,-2.3902,-2.3902,-2.3968,-2.3968,-2.3968]}]]